EW5238 Weather Reports


Display with metric or nautical units.
time (UTC)temp
F
wind
direction
speed
MPH
gust
MPH
rain 1hr
in
rain 24hr
in
rain mn
in
humidity
%
barometer
mb
20260509072422 74 190 1.0 4.0 0.00 0.00 0.00 1 1008.2
20260509071923 74 190 1.0 4.0 0.00 0.00 0.00 1 1008.0
20260509071424 74 190 1.0 4.0 0.00 0.00 0.00 1 1008.0
20260509070925 74 190 1.0 4.0 0.00 0.00 0.00 1 1008.0
20260509070424 74 190 2.0 5.0 0.00 0.00 0.00 1 1007.9
20260509065924 74 190 2.0 5.0 0.00 0.00 0.00 1 1007.9
20260509065419 74 190 2.0 4.0 0.00 0.00 0.00 1 1007.9
20260509064921 74 190 2.0 4.0 0.00 0.00 0.00 1 1008.0
20260509064419 74 190 1.0 5.0 0.00 0.00 0.00 1 1008.0
20260509063920 74 190 1.0 5.0 0.00 0.00 0.00 1 1008.1
20260509063652 74 190 2.0 6.0 0.00 0.00 0.00 1 1008.0
20260509062919 74 190 2.0 6.0 0.00 0.00 0.00 1 1007.7
20260509062418 74 190 3.0 7.0 0.00 0.00 0.00 1 1007.6
20260509061920 74 190 3.0 7.0 0.00 0.00 0.00 1 1007.6
20260509061412 74 190 3.0 7.0 0.00 0.00 0.00 1 1007.7
20260509060909 74 190 4.0 7.0 0.00 0.00 0.00 1 1007.8
20260509060408 74 190 3.0 7.0 0.00 0.00 0.00 1 1007.8
20260509055910 74 190 3.0 5.0 0.00 0.00 0.00 1 1007.9
20260509055410 74 190 3.0 7.0 0.00 0.00 0.00 1 1007.9
20260509054910 74 190 3.0 7.0 0.00 0.00 0.00 1 1008.1
20260509054403 74 190 3.0 6.0 0.00 0.00 0.00 1 1008.2
20260509053902 74 190 3.0 6.0 0.00 0.00 0.00 1 1008.3
20260509053402 74 190 3.0 8.0 0.00 0.00 0.00 1 1008.3
20260509052904 74 190 3.0 8.0 0.00 0.00 0.00 1 1008.2
20260509052403 74 190 3.0 6.0 0.00 0.00 0.00 1 1008.1
20260509051901 74 190 3.0 6.0 0.00 0.00 0.00 1 1008.1
20260509051353 74 190 2.0 5.0 0.00 0.00 0.00 1 1008.0
20260509050854 74 190 3.0 8.0 0.00 0.00 0.00 1 1007.9
20260509050352 74 190 4.0 9.0 0.00 0.00 0.00 1 1007.9
20260509045850 74 190 4.0 9.0 0.00 0.00 0.00 1 1007.9
20260509045349 74 190 3.0 6.0 0.00 0.00 0.00 1 1007.9
20260509044852 74 190 4.0 7.0 0.00 0.00 0.00 1 1007.9
20260509044348 74 190 4.0 7.0 0.00 0.00 0.00 1 1007.9
20260509043842 74 190 4.0 7.0 0.00 0.00 0.00 1 1008.0
20260509043341 74 190 4.0 7.0 0.00 0.00 0.00 1 1008.0
20260509042841 74 190 5.0 8.0 0.00 0.00 0.00 1 1008.1
20260509042616 74 190 4.0 8.0 0.00 0.00 0.00 1 1008.2
20260509041841 74 190 3.0 6.0 0.00 0.00 0.00 1 1008.3
20260509041613 74 190 3.0 6.0 0.00 0.00 0.00 1 1008.4
20260509040843 74 190 3.0 5.0 0.00 0.00 0.00 1 1008.3
20260509040343 74 190 3.0 5.0 0.00 0.00 0.00 1 1008.3
20260509035838 74 190 2.0 5.0 0.00 0.00 0.00 1 1008.3
20260509035336 75 190 2.0 5.0 0.00 0.00 0.00 1 1008.2
20260509035106 75 190 2.0 5.0 0.00 0.00 0.00 1 1008.0
20260509034340 75 190 2.0 5.0 0.00 0.00 0.00 1 1007.9
20260509033836 75 190 1.0 4.0 0.00 0.00 0.00 1 1007.9
20260509033341 75 190 1.0 5.0 0.00 0.00 0.00 1 1007.8
20260509032833 75 190 2.0 5.0 0.00 0.00 0.00 1 1007.8
20260509032333 75 190 2.0 4.0 0.00 0.00 0.00 1 1007.8
20260509031604 75 190 1.0 4.0 0.00 0.00 0.00 1 1007.8
20260509030833 75 190 1.0 5.0 0.00 0.00 0.00 1 1007.8
20260509030339 75 190 2.0 5.0 0.00 0.00 0.00 1 1007.7
20260509025329 75 190 2.0 6.0 0.00 0.00 0.00 1 1007.7
20260509024602 75 190 3.0 6.0 0.00 0.00 0.00 1 1007.5
20260509023825 75 190 4.0 7.0 0.00 0.00 0.00 1 1007.4
20260509023329 75 190 3.0 7.0 0.00 0.00 0.00 1 1007.2
20260509023101 75 190 3.0 7.0 0.00 0.00 0.00 1 1007.2
20260509022327 75 190 4.0 7.0 0.00 0.00 0.00 1 1007.2
20260509021822 75 190 4.0 8.0 0.00 0.00 0.00 1 1007.0
20260509021319 75 190 4.0 8.0 0.00 0.00 0.00 1 1007.0
20260509020821 75 190 3.0 6.0 0.00 0.00 0.00 1 1007.0
20260509015815 75 190 2.0 5.0 0.00 0.00 0.00 1 1007.0
20260509015316 75 190 2.0 7.0 0.00 0.00 0.00 1 1007.0
20260509014821 75 190 3.0 7.0 0.00 0.00 0.00 1 1007.0
20260509014315 75 190 3.0 10.0 0.00 0.00 0.00 1 1006.9
20260509013816 75 190 3.0 10.0 0.00 0.00 0.00 1 1006.9
20260509013310 75 190 3.0 6.0 0.00 0.00 0.00 1 1007.0
20260509012811 76 190 3.0 6.0 0.00 0.00 0.00 1 1007.0
20260509012311 76 190 2.0 6.0 0.00 0.00 0.00 1 1006.9
20260509011813 76 190 2.0 4.0 0.00 0.00 0.00 1 1006.9
20260509011311 76 190 2.0 5.0 0.00 0.00 0.00 1 1006.8
20260509010813 76 190 2.0 6.0 0.00 0.00 0.00 1 1006.8
20260509010313 76 190 2.0 6.0 0.00 0.00 0.00 1 1006.8
20260509005812 76 190 2.0 5.0 0.00 0.00 0.00 1 1006.8
20260509005544 76 190 2.0 5.0 0.00 0.00 0.00 1 1006.7
20260509004808 76 190 3.0 5.0 0.00 0.00 0.00 1 1006.7
20260509004310 77 190 3.0 6.0 0.00 0.00 0.00 6 1006.7
20260509003805 77 190 3.0 6.0 0.00 0.00 0.00 9 1006.7
20260509003318 77 190 2.0 6.0 0.00 0.00 0.00 12 1006.7
20260509002808 77 190 2.0 5.0 0.00 0.00 0.00 14 1006.7
20260509002537 77 190 2.0 5.0 0.00 0.00 0.00 17 1006.7
20260509001808 77 190 2.0 5.0 0.00 0.00 0.00 21 1006.7
20260509001306 78 190 2.0 6.0 0.00 0.00 0.00 23 1006.8
20260509000800 78 190 3.0 6.0 0.00 0.00 0.00 27 1006.7
20260509000256 78 190 3.0 6.0 0.00 0.00 0.00 30 1006.7
20260508235801 78 190 2.0 6.0 0.00 0.00 0.00 28 1006.8
20260508235251 78 190 2.0 5.0 0.00 0.00 0.00 27 1006.8
20260508234752 78 190 3.0 7.0 0.00 0.00 0.00 28 1006.8
20260508234251 78 190 3.0 7.0 0.00 0.00 0.00 32 1006.9
20260508233747 78 190 3.0 6.0 0.00 0.00 0.00 32 1006.8
20260508233247 78 190 3.0 6.0 0.00 0.00 0.00 36 1006.7
20260508232743 78 190 3.0 6.0 0.00 0.00 0.00 37 1006.7
20260508232248 78 190 2.0 6.0 0.00 0.00 0.00 36 1006.7
20260508232015 78 190 2.0 5.0 0.00 0.00 0.00 36 1006.7
20260508231010 79 190 3.0 7.0 0.00 0.00 0.00 42 1006.7
20260508230238 79 190 3.0 7.0 0.00 0.00 0.00 47 1006.7
20260508225736 79 190 2.0 5.0 0.00 0.00 0.00 45 1006.5
20260508225235 79 190 3.0 7.0 0.00 0.00 0.00 48 1006.6
20260508224739 79 190 3.0 7.0 0.00 0.00 0.00 49 1006.6
20260508224235 80 190 3.0 6.0 0.00 0.00 0.00 47 1006.5
20260508223737 79 190 2.0 4.0 0.00 0.00 0.00 41 1006.5
20260508223236 79 190 1.0 4.0 0.00 0.00 0.00 41 1006.8
20260508221738 79 190 0.0 3.0 0.00 0.00 0.00 39 1006.7
20260508221503 79 190 0.0 0.0 0.00 0.00 0.00 38 1007.0
20260508220956 78 190 0.0 0.0 0.00 0.00 0.00 39 1007.0
20260508220455 78 190 0.0 0.0 0.00 0.00 0.00 43 1007.1
20260508215725 78 190 0.0 0.0 0.00 0.00 0.00 46 1007.1
20260508215221 78 190 0.0 0.0 0.00 0.00 0.00 46 1007.0
20260508214950 78 190 0.0 0.0 0.00 0.00 0.00 43 1007.0
20260508214210 78 190 0.0 0.0 0.00 0.00 0.00 44 1007.0
20260508213710 78 190 0.0 0.0 0.00 0.00 0.00 39 1007.2
20260508213440 78 190 0.0 0.0 0.00 0.00 0.00 41 1007.3
20260508212707 78 190 0.0 0.0 0.00 0.00 0.00 43 1007.3
20260508212206 78 190 0.0 0.0 0.00 0.00 0.00 46 1007.5
20260508211934 78 190 0.0 0.0 0.00 0.00 0.00 47 1007.6
20260508211158 78 190 0.0 0.0 0.00 0.00 0.00 49 1007.5
20260508210927 78 190 0.0 0.0 0.00 0.00 0.00 44 1007.5
20260508210155 78 190 0.0 0.0 0.00 0.00 0.00 47 1007.6
20260508205924 78 190 0.0 0.0 0.00 0.00 0.00 46 1007.7
20260508205422 78 190 0.0 0.0 0.00 0.00 0.00 45 1007.7
20260508204648 78 190 0.0 0.0 0.00 0.00 0.00 44 1007.8
20260508204151 78 190 0.0 0.0 0.00 0.00 0.00 46 1008.0
20260508203650 78 190 0.0 0.0 0.00 0.00 0.00 48 1007.9
20260508203148 78 190 0.0 0.0 0.00 0.00 0.00 46 1007.9
20260508202918 77 190 1.0 4.0 0.00 0.00 0.00 42 1007.9
20260508202143 77 190 2.0 5.0 0.00 0.00 0.00 44 1008.0
20260508201644 77 190 1.0 5.0 0.00 0.00 0.00 39 1008.0
20260508201140 76 190 1.0 4.0 0.00 0.00 0.00 36 1008.2
20260508200638 76 190 1.0 4.0 0.00 0.00 0.00 27 1008.3
20260508200138 75 190 2.0 4.0 0.00 0.00 0.00 27 1008.4
20260508195913 75 190 1.0 4.0 0.00 0.00 0.00 37 1008.5
20260508195404 75 190 1.0 3.0 0.00 0.00 0.00 39 1008.7
20260508194634 76 190 1.0 4.0 0.00 0.00 0.00 43 1008.8
20260508194129 76 190 1.0 4.0 0.00 0.00 0.00 44 1008.7
20260508193633 76 190 1.0 4.0 0.00 0.00 0.00 42 1008.8
20260508193128 76 190 2.0 4.0 0.00 0.00 0.00 46 1008.7
20260508192624 76 190 2.0 5.0 0.00 0.00 0.00 42 1008.8
20260508192120 76 190 2.0 5.0 0.00 0.00 0.00 45 1008.8
20260508191620 76 190 2.0 5.0 0.00 0.00 0.00 47 1008.9
20260508191118 76 190 1.0 3.0 0.00 0.00 0.00 42 1008.8
20260508190618 76 190 0.0 3.0 0.00 0.00 0.00 47 1008.8
20260508190350 76 190 0.0 2.0 0.00 0.00 0.00 39 1009.1
20260508185622 75 190 0.0 0.0 0.00 0.00 0.00 41 1009.1
20260508185118 76 190 0.0 2.0 0.00 0.00 0.00 48 1009.2
20260508184616 76 190 1.0 2.0 0.00 0.00 0.00 45 1009.2
20260508184115 76 190 1.0 2.0 0.00 0.00 0.00 47 1009.3
20260508183614 76 190 1.0 4.0 0.00 0.00 0.00 44 1009.4
20260508183352 76 190 1.0 4.0 0.00 0.00 0.00 44 1009.4
20260508182842 75 190 1.0 4.0 0.00 0.00 0.00 29 1009.3
20260508182112 74 190 1.0 4.0 0.00 0.00 0.00 18 1009.3
20260508181613 74 190 1.0 4.0 0.00 0.00 0.00 23 1009.6
20260508181111 73 190 1.0 3.0 0.00 0.00 0.00 13 1009.6
20260508180843 73 190 1.0 4.0 0.00 0.00 0.00 7 1009.6
20260508180109 72 190 1.0 4.0 0.00 0.00 0.00 8 1009.6
20260508175611 72 190 1.0 4.0 0.00 0.00 0.00 1 1009.6
20260508175102 71 190 1.0 3.0 0.00 0.00 0.00 1 1009.4
20260508174106 71 190 1.0 3.0 0.00 0.00 0.00 1 1009.7
20260508173838 71 190 1.0 3.0 0.00 0.00 0.00 1 1009.7
20260508173102 70 190 1.0 3.0 0.00 0.00 0.00 1 1009.9
20260508172600 70 190 1.0 5.0 0.00 0.00 0.00 1 1010.0
20260508172103 70 190 2.0 6.0 0.00 0.00 0.00 1 1010.1
20260508171556 70 190 2.0 6.0 0.00 0.00 0.00 1 1010.0
20260508171055 69 190 2.0 6.0 0.00 0.00 0.00 1 1010.2
20260508170555 70 190 2.0 5.0 0.00 0.00 0.00 1 1010.5
20260508170057 69 190 1.0 3.0 0.00 0.00 0.00 1 1010.4
20260508165600 69 190 0.0 3.0 0.00 0.00 0.00 1 1010.5
20260508165054 69 190 0.0 1.0 0.00 0.00 0.00 1 1010.8
20260508164602 69 190 0.0 1.0 0.00 0.00 0.00 1 1010.8
20260508164320 68 190 1.0 3.0 0.00 0.00 0.00 1 1011.0
20260508163551 68 190 1.0 3.0 0.00 0.00 0.00 1 1011.0
20260508163051 69 190 1.0 5.0 0.00 0.00 0.00 1 1010.9
20260508162550 69 190 2.0 5.0 0.00 0.00 0.00 1 1010.9
20260508162053 68 190 2.0 5.0 0.00 0.00 0.00 1 1010.9
20260508161556 68 190 2.0 5.0 0.00 0.00 0.00 1 1010.7
20260508161045 68 190 2.0 6.0 0.00 0.00 0.00 1 1010.6
20260508160546 68 190 2.0 6.0 0.00 0.00 0.00 1 1010.5
20260508155547 68 190 2.0 5.0 0.00 0.00 0.00 1 1010.7
20260508155051 68 190 2.0 5.0 0.00 0.00 0.00 1 1010.6
20260508154547 67 190 2.0 6.0 0.00 0.00 0.00 1 1010.6
20260508153547 67 190 3.0 6.0 0.00 0.00 0.00 1 1010.7
20260508153050 67 190 3.0 7.0 0.00 0.00 0.00 1 1010.7
20260508152818 67 190 3.0 7.0 0.00 0.00 0.00 5 1010.7
20260508152045 67 190 2.0 5.0 0.00 0.00 0.00 7 1010.8
20260508151544 67 190 2.0 5.0 0.00 0.00 0.00 3 1010.8
20260508151045 67 190 2.0 5.0 0.00 0.00 0.00 1 1010.8
20260508150540 67 190 2.0 5.0 0.00 0.00 0.00 3 1011.0
20260508150040 67 190 1.0 4.0 0.00 0.00 0.00 3 1011.2
20260508145809 67 190 1.0 5.0 0.00 0.00 0.00 1 1011.2
20260508145035 67 190 1.0 5.0 0.00 0.00 0.00 1 1011.3
20260508144534 67 190 1.0 4.0 0.00 0.00 0.00 1 1011.3
20260508144033 66 190 1.0 4.0 0.00 0.00 0.00 1 1011.4
20260508143529 66 190 0.0 4.0 0.00 0.00 0.00 1 1011.4
20260508143031 66 190 1.0 3.0 0.00 0.00 0.00 1 1011.4
20260508142530 66 190 1.0 3.0 0.00 0.00 0.00 1 1011.4
20260508142032 66 190 1.0 3.0 0.00 0.00 0.00 1 1011.3
20260508141533 65 190 1.0 6.0 0.00 0.00 0.00 1 1011.4
20260508141028 65 190 1.0 6.0 0.00 0.00 0.00 1 1011.4
20260508140524 65 190 1.0 5.0 0.00 0.00 0.00 1 1011.4
20260508140257 65 190 1.0 5.0 0.00 0.00 0.00 1 1011.5
20260508135755 65 190 1.0 5.0 0.00 0.00 0.00 1 1011.3
20260508135022 65 190 0.0 4.0 0.00 0.00 0.00 1 1011.3
20260508134517 65 190 1.0 5.0 0.00 0.00 0.00 1 1011.4
20260508134245 64 190 1.0 5.0 0.00 0.00 0.00 1 1011.4
20260508133513 64 190 1.0 5.0 0.00 0.00 0.00 1 1011.7
20260508133012 65 190 1.0 5.0 0.00 0.00 0.00 1 1011.6
20260508132510 64 190 1.0 5.0 0.00 0.00 0.00 1 1011.5
20260508132007 64 190 2.0 5.0 0.00 0.00 0.00 1 1011.4
20260508131501 64 190 2.0 5.0 0.00 0.00 0.00 1 1011.5
20260508131000 64 190 1.0 4.0 0.00 0.00 0.00 1 1011.4
20260508130500 64 190 1.0 4.0 0.00 0.00 0.00 1 1011.3
20260508130228 64 190 0.0 4.0 0.00 0.00 0.00 1 1011.3
20260508125458 0 0.0 0.0 0.00 0.00 0.00 1011.3
20260508125005 0 0.0 0.0 0.00 0.00 0.00 1011.3
20260508124449 0 0.0 0.0 0.00 0.00 0.00 1011.2
20260508123901 0 0.0 0.0 0.00 0.00 0.00 1011.5
20260508123358 0 0.0 0.0 0.00 0.00 0.00 1011.5
20260508122857 0 0.0 0.0 0.00 0.00 0.00 1011.6
20260508122349 63 0.0 0.0 0.00 0.00 0.00 1 1011.6
20260508121753 63 190 0.0 0.0 0.00 0.00 0.00 1 1011.7
20260508121201 63 190 0.0 0.0 0.00 0.00 0.00 1 1011.7
20260508120623 63 190 0.0 0.0 0.00 0.00 0.00 1 1011.7
20260508120347 64 190 0.0 0.0 0.00 0.00 0.00 1 1011.8
20260508115613 64 190 0.0 0.0 0.00 0.00 0.00 1 1011.7
20260508115113 64 190 0.0 0.0 0.00 0.00 0.00 1 1011.8
20260508114615 63 190 0.0 0.0 0.00 0.00 0.00 1 1011.7
20260508114113 63 190 0.0 0.0 0.00 0.00 0.00 1 1011.5
20260508113611 63 190 0.0 0.0 0.00 0.00 0.00 1 1011.6
20260508113342 63 190 0.0 0.0 0.00 0.00 0.00 1 1011.8
20260508112605 63 190 0.0 0.0 0.00 0.00 0.00 1 1011.6
20260508112103 63 190 0.0 0.0 0.00 0.00 0.00 1 1011.2
20260508111600 63 190 0.0 0.0 0.00 0.00 0.00 1 1011.2
20260508111059 63 190 0.0 0.0 0.00 0.00 0.00 2 1011.4
20260508110558 64 190 0.0 0.0 0.00 0.00 0.00 8 1011.4
20260508110056 64 190 0.0 0.0 0.00 0.00 0.00 7 1011.5
20260508105556 64 190 0.0 0.0 0.00 0.00 0.00 10 1011.4
20260508105329 64 190 0.0 0.0 0.00 0.00 0.00 13 1010.8
20260508104554 64 190 0.0 0.0 0.00 0.00 0.00 14 1011.0
20260508104052 64 190 0.0 0.0 0.00 0.00 0.00 14 1011.0
20260508103552 64 190 0.0 0.0 0.00 0.00 0.00 13 1011.1
20260508103050 64 190 0.0 0.0 0.00 0.00 0.00 15 1011.4
20260508102550 64 190 0.0 0.0 0.00 0.00 0.00 19 1011.5
20260508102051 64 190 0.0 0.0 0.00 0.00 0.00 18 1011.3
20260508101549 64 190 0.0 0.0 0.00 0.00 0.00 16 1011.4
20260508101046 64 190 0.0 0.0 0.00 0.00 0.00 19 1011.2
20260508100546 64 190 0.0 0.0 0.00 0.00 0.00 19 1011.2
20260508100312 64 190 0.0 0.0 0.00 0.00 0.00 18 1011.3
20260508095541 64 190 0.0 0.0 0.00 0.00 0.00 19 1011.3
20260508095036 64 190 0.0 0.0 0.00 0.00 0.00 21 1011.4
20260508094804 64 190 0.0 0.0 0.00 0.00 0.00 23 1011.4
20260508094305 64 190 0.0 0.0 0.00 0.00 0.00 25 1011.3
20260508093532 64 190 0.0 0.0 0.00 0.00 0.00 24 1011.2
20260508093031 64 190 0.0 0.0 0.00 0.00 0.00 25 1011.2
20260508092531 64 190 0.0 0.0 0.00 0.00 0.00 25 1011.1
20260508092030 64 190 0.0 0.0 0.00 0.00 0.00 26 1011.3
20260508091530 64 190 0.0 0.0 0.00 0.00 0.00 24 1011.4
20260508091030 64 190 0.0 0.0 0.00 0.00 0.00 25 1011.4
20260508090522 64 190 0.0 0.0 0.00 0.00 0.00 27 1011.3
20260508090020 64 190 0.0 0.0 0.00 0.00 0.00 29 1011.3
20260508085519 64 190 0.0 0.0 0.00 0.00 0.00 30 1011.1
20260508085248 64 190 0.0 0.0 0.00 0.00 0.00 31 1011.0
20260508084515 64 190 0.0 0.0 0.00 0.00 0.00 30 1010.9
20260508084012 64 190 0.0 0.0 0.00 0.00 0.00 32 1010.9
20260508083518 64 190 0.0 0.0 0.00 0.00 0.00 32 1011.0
20260508083243 64 190 0.0 0.0 0.00 0.00 0.00 31 1011.1
20260508082510 64 190 0.0 0.0 0.00 0.00 0.00 31 1010.8
20260508082008 63 190 0.0 0.0 0.00 0.00 0.00 32 1010.8
20260508081508 63 190 0.0 0.0 0.00 0.00 0.00 31 1011.0
20260508081004 63 190 0.0 1.0 0.00 0.00 0.00 30 1011.0
20260508080734 63 190 0.0 2.0 0.00 0.00 0.00 30 1011.1
20260508075958 63 190 0.0 2.0 0.00 0.00 0.00 30 1011.2
20260508075729 63 190 0.0 2.0 0.00 0.00 0.00 29 1011.3
20260508075231 63 190 0.0 3.0 0.00 0.00 0.00 29 1011.3
20260508074459 63 190 0.0 3.0 0.00 0.00 0.00 28 1011.0
20260508073958 63 190 0.0 2.0 0.00 0.00 0.00 27 1011.7
20260508073732 63 190 0.0 2.0 0.00 0.00 0.00 30 1011.6
20260508073225 63 190 0.0 2.0 0.00 0.00 0.00 28 1011.8